Location: Ahausen
(50.4985°N, 8.2722°E)
Time: 05:35:24
(UTC+00:00)

NOSS 2-3 (E) - Pass Details

Date: 18 September 2020
Orbit: 574 x 1638 km, 63.4° (Epoch: 08 October)

Event Time Altitude Azimuth Distance (km) Brightness Sun altitude
Rises 17:55:52 0° 236° (SW) 2,819 7.8 -4.4°
Reaches altitude 10° 17:57:58 10° 240° (WSW) 1,973 7.0 -4.7°
Maximum altitude 18:02:17 59° 320° (NW) 797 4.4 -5.4°
Drops below altitude 10° 18:07:35 10° 41° (NE) 2,411 6.3 -6.3°
Sets 18:10:24 0° 45° (NE) 3,514 7.1 -6.7°
